Wind_Speed
18 22 23 22 22 22 21 20 20 20 22 24 21 19 19 17 19 20 18 18 17 16 15 13 13 12 13 13 12 11 11 12 11 11 13 14 14 15 13 13 12 12 11 9 8 9 10 11 9 8 8 6 6 6 7 6 5 5 5 3 3 2 1 1 2 5 5 3 1 2 2 1 2 3 5 6 6 8 4 3 5 8 7 6 4
18 20 22 23 22 23 22 21 21 21 22 23 22 21 20 18 19 20 19 19 17 17 16 14 13 12 13 12 13 14 12 12 12 11 13 13 14 14 12 13 13 11 11 10 10 9 9 10 9 8 8 7 6 5 7 7 5 5 4 3 2 2 1 2 4 3 3 4 3 2 2 1 2 4 7 7 7 8 6 3 5 7 9 7 6
17 18 21 23 23 23 22 21 21 22 22 23 21 21 21 19 20 19 19 19 17 17 16 15 14 13 12 12 13 15 13 13 13 13 14 13 12 11 10 12 12 12 11 10 9 8 8 9 8 8 7 7 6 5 6 6 5 5 5 4 3 3 3 3 3 2 1 5 4 0 2 1 2 5 10 10 7 8 8 7 6 7 9 7 7
17 17 19 21 23 24 22 21 22 22 22 22 22 22 21 20 21 20 19 19 18 18 17 14 14 13 12 11 11 14 14 14 13 14 15 13 12 10 9 11 11 11 11 10 9 8 8 8 8 8 7 7 7 5 6 6 6 6 5 5 4 4 4 5 3 1 2 4 3 1 3 1 1 5 11 10 4 6 9 7 5 7 9 4 7
17 18 17 19 22 23 22 22 22 22 22 22 22 22 21 21 22 21 19 19 18 19 17 15 15 14 12 12 11 12 15 16 15 17 17 14 12 10 9 9 8 9 10 10 9 7 8 8 8 8 7 7 7 6 7 7 7 7 6 6 4 2 3 5 4 1 2 2 1 1 1 0 1 3 3 3 3 2 6 5 2 7 9 3 5
15 18 17 18 21 22 23 23 23 22 22 22 22 22 20 21 23 21 20 19 18 19 18 16 16 16 14 13 12 13 14 16 16 17 18 16 14 12 10 9 7 8 9 10 9 9 9 9 9 9 8 9 8 7 9 8 8 7 7 7 5 2 2 5 5 2 3 2 1 2 1 1 2 4 3 1 4 3 4 7 4 5 7 4 4
13 16 17 18 21 21 22 23 23 23 23 23 22 22 22 22 23 22 20 19 18 19 19 17 17 17 15 13 12 12 12 13 14 15 17 17 16 15 14 13 12 11 12 13 12 11 11 10 8 9 9 9 8 8 9 8 8 7 8 7 5 5 3 4 5 4 5 4 3 4 1 1 1 2 2 1 0 3 2 6 9 7 8 9 10
11 12 13 17 21 22 22 23 23 23 23 23 23 22 23 24 24 22 21 20 18 20 20 19 19 18 16 14 13 12 11 11 11 13 15 16 18 18 17 16 15 14 15 15 13 12 12 11 9 9 10 9 7 7 8 8 8 9 8 6 7 7 5 3 2 3 4 3 1 1 2 2 1 2 3 3 1 1 4 2 5 5 7 7 10
11 11 10 14 20 23 24 23 23 23 24 23 23 23 24 25 25 23 22 21 19 21 21 19 19 19 16 15 14 13 11 12 11 12 15 15 16 17 17 17 15 15 16 14 12 12 11 12 11 10 9 9 8 8 7 8 8 9 8 6 7 7 5 3 1 1 1 1 2 1 6 3 2 1 3 2 3 2 2 2 4 3 5 6 3
11 11 9 12 18 21 23 24 23 22 23 24 23 23 24 25 25 24 23 22 20 22 22 19 18 19 18 16 15 14 12 12 12 13 14 13 14 16 17 17 13 13 14 13 13 12 11 11 11 10 8 9 9 9 8 8 8 9 8 7 7 7 5 4 3 1 2 1 3 2 3 4 5 1 3 2 3 2 4 1 5 5 6 4 4
10 9 9 11 13 13 17 22 23 23 23 23 23 23 24 25 26 25 24 23 22 22 22 20 19 18 18 17 16 15 13 12 13 13 14 14 15 16 17 17 14 12 14 13 13 12 11 10 10 10 9 8 8 8 7 7 8 8 8 8 7 7 6 5 4 3 3 2 2 4 3 4 4 2 1 4 4 2 5 3 3 5 8 5 2
11 9 9 10 7 6 10 15 19 21 23 23 23 24 25 25 27 26 24 23 22 23 22 21 20 18 18 18 16 16 14 13 14 14 14 15 15 15 16 17 15 14 15 14 13 12 12 11 10 10 9 8 7 7 7 8 8 7 8 9 7 7 6 5 5 4 4 4 3 4 5 6 4 3 3 1 3 5 5 6 3 2 4 7 6
11 9 9 9 6 6 7 8 12 15 20 24 23 23 25 25 27 26 25 25 23 23 23 22 20 19 18 18 17 17 15 14 14 14 14 14 15 15 16 16 15 15 16 15 14 14 13 12 11 10 9 8 8 8 9 9 8 7 8 8 7 7 6 6 6 5 5 6 5 5 6 7 6 4 3 6 3 1 4 7 5 5 4 4 8
9 9 10 8 7 8 6 6 11 14 16 23 24 24 25 24 27 27 25 26 25 24 23 23 22 20 19 19 18 18 17 15 14 14 14 14 14 14 15 15 15 15 16 15 15 16 15 12 11 10 10 9 9 9 9 8 8 7 8 8 7 7 7 6 7 6 6 7 7 5 6 6 4 4 2 5 6 5 4 4 4 6 9 3 4
9 9 8 6 7 11 10 9 14 17 13 15 20 23 26 25 25 27 26 25 25 25 24 23 22 21 19 19 18 18 17 16 15 14 14 14 14 14 14 15 15 15 15 14 15 15 14 13 12 11 10 10 9 8 7 8 9 7 7 8 7 8 8 7 7 7 7 8 7 6 6 6 4 4 4 3 2 1 3 6 5 3 6 6 1
9 9 9 9 8 13 13 10 14 17 11 9 15 14 19 26 27 25 26 25 25 25 24 24 22 21 21 20 19 19 18 17 16 15 15 15 14 14 14 14 14 15 14 13 13 14 13 14 13 11 11 10 9 9 7 8 9 7 7 8 7 7 8 8 8 8 8 8 7 7 7 7 5 4 5 2 3 4 4 5 4 2 2 3 3
9 10 10 11 11 13 13 10 11 12 7 7 11 11 8 18 27 26 24 24 24 24 23 23 23 22 22 21 20 19 19 18 17 16 16 15 15 14 14 14 14 14 14 13 14 14 14 14 13 12 11 11 10 10 9 9 9 9 8 8 8 7 8 8 8 8 8 8 8 8 7 7 6 5 5 3 2 2 4 1 3 2 2 1 2
8 10 9 9 10 11 12 11 9 7 5 8 11 7 10 10 19 24 24 23 23 23 22 22 23 22 22 22 22 21 20 19 18 18 17 16 16 15 14 14 14 13 14 14 15 15 14 14 13 12 12 12 11 11 11 9 9 10 9 8 8 8 8 9 9 9 9 8 8 8 8 7 7 6 5 5 3 2 4 4 4 3 1 0 1
5 8 8 8 10 11 10 9 7 6 8 9 11 10 9 11 11 15 20 22 22 21 21 21 22 21 21 22 22 21 21 20 19 19 19 17 17 17 15 14 14 14 13 14 15 14 14 14 13 13 12 12 12 11 11 11 10 11 10 8 9 9 8 9 9 9 9 9 8 8 8 8 8 7 7 8 6 4 5 6 6 3 3 2 1
3 4 5 6 9 10 10 8 6 7 9 12 13 16 16 14 13 13 15 18 19 19 19 21 21 19 20 22 22 22 22 21 20 21 20 19 18 18 17 16 16 15 13 13 14 14 14 14 13 13 13 13 13 12 12 12 12 11 10 9 10 10 9 9 9 9 9 9 9 8 8 9 8 8 8 8 7 5 5 7 7 4 4 5 4
9 7 4 3 7 10 11 9 9 8 11 14 16 18 18 16 18 18 16 15 16 17 18 18 20 20 20 21 21 22 22 21 20 21 20 20 20 19 18 17 17 17 16 15 14 14 14 14 14 13 13 13 14 14 13 13 13 12 11 10 10 11 11 10 9 9 8 8 9 9 9 9 9 9 8 8 8 8 8 8 8 7 7 8 8
9 10 9 8 8 10 11 9 8 8 8 10 11 14 17 15 16 17 16 16 18 19 17 15 15 18 20 22 22 22 22 22 21 21 21 20 20 20 20 19 18 18 18 17 16 16 15 15 14 14 14 14 15 15 14 14 14 14 13 11 11 12 12 11 10 10 9 8 8 9 9 10 10 10 10 9 9 10 11 12 11 10 9 10 12
10 11 11 12 12 11 10 8 8 10 7 7 10 15 16 13 13 15 14 16 20 20 18 17 15 14 15 18 22 22 21 23 22 21 21 20 20 20 20 20 19 18 19 19 18 18 17 17 16 15 15 15 16 16 15 14 15 15 14 13 12 13 13 12 11 11 10 10 9 9 9 9 10 11 11 10 10 11 11 11 12 14 14 13 13
11 10 10 14 16 14 11 9 8 10 8 7 10 12 11 10 12 14 14 15 17 18 18 19 20 19 16 18 20 24 22 22 23 22 22 21 20 20 21 20 19 18 19 19 19 19 20 19 18 17 17 16 16 17 16 15 15 15 15 14 13 13 13 13 12 12 12 11 11 11 10 10 10 10 11 10 11 11 12 11 10 10 11 11 10
10 11 12 13 15 15 14 12 9 8 8 5 5 5 6 8 9 10 12 13 12 14 16 17 19 22 20 21 23 22 24 23 22 21 22 23 21 20 20 21 19 18 19 20 20 20 20 22 21 19 18 18 17 17 17 16 16 16 16 15 14 14 14 14 14 13 13 13 13 12 12 11 11 11 11 11 12 12 12 12 11 10 10 10 10
11 12 12 12 13 14 16 15 12 10 11 11 8 6 5 3 4 4 6 9 10 10 12 15 16 18 22 22 25 24 21 23 23 22 20 21 21 21 20 20 20 19 19 19 21 21 20 22 23 21 20 20 19 18 18 18 17 16 17 16 15 15 15 15 15 14 14 14 14 14 13 13 13 13 13 13 13 13 13 13 13 12 12 11 12
11 11 12 11 11 13 15 17 16 15 16 17 14 9 9 9 8 8 6 1 7 8 8 10 12 14 17 20 21 21 19 15 15 19 21 20 20 20 20 21 21 20 19 18 20 22 22 22 23 23 21 21 22 20 20 20 19 17 17 17 17 16 16 16 16 15 15 15 15 15 15 15 15 16 15 15 14 14 14 14 14 14 13 13 13
11 12 12 12 11 11 13 15 16 17 18 19 19 16 11 10 10 10 11 9 4 2 2 2 4 7 12 14 14 14 16 18 14 11 14 17 19 19 19 21 22 21 20 20 19 21 22 22 21 22 22 21 22 23 21 21 21 20 18 18 18 18 18 17 17 17 16 16 17 16 16 17 18 18 17 17 16 16 15 15 16 15 15 14 15
12 12 12 12 11 11 12 12 13 15 16 16 17 16 14 10 11 11 11 11 11 12 11 10 8 4 7 12 13 14 17 19 15 11 10 10 14 18 18 18 21 22 21 19 19 20 21 22 21 21 22 21 21 22 23 23 23 22 21 19 19 20 19 19 19 19 18 18 18 17 17 18 19 20 20 20 18 17 17 17 16 16 16 16 16
12 12 12 12 12 12 13 12 11 13 14 13 13 13 14 13 13 13 15 14 13 14 14 12 11 8 3 1 3 7 12 15 16 16 13 9 9 10 11 10 12 17 20 20 20 19 19 21 22 22 22 22 21 22 23 24 24 24 24 22 21 20 20 21 20 20 20 20 19 19 18 18 19 20 22 22 22 20 19 19 18 17 16 17 18
12 11 11 11 12 13 13 13 12 13 12 11 12 12 12 14 14 14 16 16 15 15 13 11 11 9 7 6 6 4 1 4 7 10 12 11 10 8 8 8 7 8 11 14 18 20 20 19 21 23 23 22 22 22 24 26 26 26 25 24 24 23 22 23 23 22 21 21 20 20 20 19 20 20 21 22 23 23 22 22 22 20 19 18 17
11 11 11 11 11 12 13 13 13 13 13 12 12 11 12 13 14 16 17 17 17 15 11 10 12 13 10 9 8 9 8 6 4 2 2 6 10 11 13 12 9 9 10 10 13 17 20 21 20 21 22 23 24 23 24 27 29 29 28 27 26 25 24 24 24 25 24 23 23 22 22 21 20 21 22 23 24 24 24 24 25 25 25 23 21
11 11 10 10 11 12 12 13 13 13 13 13 12 12 13 13 14 17 17 15 16 16 13 12 13 14 12 11 11 10 10 9 8 7 5 4 6 9 12 13 14 13 13 14 15 15 17 21 23 23 22 22 24 26 26 28 30 31 32 31 29 26 26 25 25 26 26 26 25 25 24 23 22 22 22 24 26 27 27 27 28 28 28 28 28
10 11 11 11 11 12 12 12 13 13 13 14 13 12 13 13 14 15 15 14 15 15 14 14 15 15 14 14 13 11 10 9 8 9 9 9 8 7 10 12 14 14 15 17 19 19 18 19 22 26 26 24 23 25 27 29 31 32 33 35 34 31 28 27 27 26 27 27 27 27 27 27 26 25 24 23 24 27 28 29 29 30 30 29 29
9 9 10 11 12 12 11 11 11 12 13 13 13 12 12 12 12 12 12 13 14 14 13 13 14 15 15 15 14 11 8 7 7 8 9 9 8 7 9 11 14 15 15 17 19 21 23 22 21 23 26 27 26 25 25 27 30 33 34 35 37 35 31 29 29 28 27 26 27 27 28 29 29 28 28 26 24 23 25 27 28 29 29 30 30
9 9 10 11 12 11 11 10 10 12 12 12 12 12 12 12 11 10 10 11 12 13 13 13 14 15 15 15 13 10 8 8 8 7 7 8 7 7 8 10 12 14 16 19 21 22 25 27 25 24 25 27 28 27 28 28 27 30 33 36 38 38 36 32 30 30 29 29 28 28 27 28 28 29 29 29 27 25 23 24 24 25 25 26 28
9 10 11 11 12 11 9 9 10 12 12 11 11 11 11 12 11 10 11 11 12 13 12 12 13 14 15 14 12 10 10 9 9 8 8 7 6 7 8 10 12 14 15 19 21 22 23 24 26 26 25 26 27 27 29 30 30 29 31 35 38 38 36 34 32 31 30 30 30 31 30 29 29 29 28 28 28 28 27 26 24 23 23 23 23
8 9 10 11 11 10 9 9 10 12 11 10 10 10 10 11 12 11 11 12 12 13 12 11 11 10 11 12 12 12 11 10 9 9 10 10 9 7 8 10 12 13 15 16 17 18 19 20 22 24 25 26 27 28 28 30 31 31 31 34 37 37 34 33 32 31 31 31 31 31 32 33 33 32 31 29 27 27 29 30 28 25 24 24 23
8 9 10 10 10 8 9 9 11 12 11 10 10 10 10 11 11 11 10 11 12 11 11 11 10 8 8 9 10 9 10 10 9 10 11 11 11 9 8 10 11 13 15 16 16 16 17 18 20 22 23 24 26 28 29 30 31 32 32 33 34 35 33 32 31 30 29 30 31 31 32 33 35 35 35 33 30 28 28 30 29 27 26 27 26
9 10 10 9 8 9 10 11 12 12 11 10 10 10 10 10 10 10 10 11 11 11 11 11 11 10 9 9 7 7 9 10 10 11 11 11 12 11 10 10 11 12 14 16 17 17 18 19 20 21 23 24 26 26 26 27 29 30 32 35 34 33 32 32 30 28 28 27 28 30 32 33 35 36 37 37 35 33 32 31 29 28 28 29 27
9 9 9 8 9 10 10 11 12 11 11 11 11 10 10 10 9 9 10 11 10 10 11 12 11 11 10 10 9 9 11 12 12 13 11 10 11 12 13 13 12 12 13 15 17 18 19 21 22 25 29 29 26 24 22 23 26 26 26 29 32 31 31 31 30 28 27 27 27 27 29 31 33 35 36 37 38 38 37 35 33 33 34 32 27
7 7 8 8 9 10 10 11 12 12 12 12 11 11 10 10 10 9 10 10 9 9 10 11 12 11 10 11 10 10 11 12 13 15 14 13 12 13 14 14 13 13 14 15 16 17 19 20 22 27 30 27 23 22 21 22 25 26 25 25 28 32 32 30 29 29 27 27 27 27 28 28 30 31 33 34 36 38 39 40 39 39 39 36 31
6 7 9 9 8 9 10 11 11 11 12 12 12 12 11 10 10 10 10 10 10 10 11 11 10 10 9 10 10 11 11 11 12 13 15 16 16 15 16 15 14 15 15 15 16 17 19 21 22 25 26 23 22 22 22 23 26 28 26 23 24 33 37 33 29 27 27 26 26 25 26 28 28 29 30 31 32 34 37 39 40 40 40 39 36
6 7 9 9 8 8 9 9 9 10 11 11 11 11 11 11 11 11 11 11 11 11 11 10 9 10 10 11 10 11 11 11 12 13 13 15 16 16 17 18 17 17 17 16 16 17 17 20 22 22 22 20 21 23 25 26 25 24 23 23 24 28 33 34 31 27 25 23 21 20 22 24 26 27 27 28 30 32 34 35 36 37 37 38 39
6 8 9 9 9 9 9 9 9 10 11 11 11 11 11 11 12 12 12 12 11 11 10 10 11 11 12 12 11 11 11 12 13 13 14 14 14 15 17 19 19 17 15 15 16 16 16 17 19 19 18 19 21 24 23 21 19 20 23 26 26 24 24 27 31 34 33 27 22 21 21 21 23 24 25 25 27 30 33 35 35 35 35 37 39
6 7 9 9 9 9 9 10 11 11 11 11 11 11 11 11 11 12 12 12 12 11 11 11 12 12 12 12 12 12 12 13 14 15 16 16 16 17 18 19 18 16 14 14 15 15 13 12 11 12 15 18 20 22 20 18 19 21 23 23 22 21 20 21 24 30 36 36 33 30 26 23 23 24 25 27 27 27 29 32 35 36 37 38 39
5 6 7 8 8 9 10 11 11 12 12 12 11 11 11 11 12 12 12 12 11 12 11 11 12 13 13 13 13 13 14 14 15 15 16 16 17 18 16 14 12 12 12 13 12 11 11 11 13 14 17 17 17 17 17 16 15 16 18 19 19 19 19 19 19 20 24 31 35 36 35 33 31 30 31 32 32 31 30 30 32 35 38 40 40
5 6 6 7 8 9 10 11 11 11 11 12 12 12 11 12 12 12 12 12 11 12 12 12 13 13 14 14 14 14 14 15 14 14 14 15 16 15 13 11 11 12 13 14 12 12 14 15 17 19 20 19 18 17 15 13 11 14 17 18 17 14 14 13 13 12 13 17 23 29 33 34 34 35 37 38 36 35 35 34 34 35 36 37 38
6 6 7 8 9 10 11 11 11 11 12 12 12 12 12 12 12 12 12 12 12 12 13 13 13 13 13 13 13 13 13 13 13 14 14 14 15 14 13 14 14 14 14 14 15 18 21 21 22 21 19 19 19 18 16 18 20 23 24 23 21 18 16 14 13 13 13 14 18 23 26 25 25 28 33 35 35 35 34 33 35 36 36 36 37
7 8 8 9 10 10 11 12 11 11 12 13 13 13 13 13 13 14 14 14 14 14 14 13 13 13 13 13 13 14 15 16 17 18 18 17 17 17 19 21 21 20 20 21 24 26 26 23 24 24 21 18 19 21 22 25 28 29 28 27 26 25 24 24 24 22 20 20 22 22 22 19 18 21 25 28 31 32 32 31 30 31 33 34 36
7 7 8 8 9 10 11 12 12 12 12 13 13 14 14 15 15 15 15 16 16 15 15 14 13 13 14 14 14 15 15 16 17 18 19 20 21 23 25 26 27 27 27 27 26 26 23 19 20 23 23 21 22 23 25 26 27 27 28 28 28 28 29 29 28 25 25 27 26 23 22 20 19 21 24 26 27 28 29 29 27 27 28 31 32
Wind_Direction
170 170 167 166 166 161 160 162 158 157 155 153 158 158 160 161 152 155 160 155 157 159 160 162 161 162 158 158 157 155 155 151 152 158 158 158 160 161 159 159 159 156 160 153 144 153 152 153 159 157 162 180 184 169 164 166 158 133 125 122 106 93 90 111 102 105 109 100 108 125 105 165 175 202 214 199 198 191 180 238 203 165 163 178 153
172 172 168 168 167 162 162 164 162 160 156 157 162 161 162 162 156 160 162 160 163 163 165 167 166 167 165 164 157 159 162 159 168 168 159 162 164 164 161 157 155 158 165 155 146 159 157 153 154 156 173 192 188 159 149 157 156 134 133 146 131 139 196 121 105 125 151 148 156 155 129 152 215 231 236 218 191 184 171 165 199 175 151 158 165
174 173 169 170 167 163 165 166 165 163 159 162 164 162 164 164 161 163 164 165 168 168 170 168 168 171 168 168 158 155 161 166 173 167 158 164 167 165 161 156 157 159 158 150 153 164 160 158 160 168 182 185 180 154 144 159 160 154 164 171 158 167 176 123 126 280 308 128 121 89 168 173 247 253 253 236 179 166 172 163 185 172 140 155 182
174 174 172 171 169 165 167 169 167 164 163 166 167 165 166 166 165 167 166 167 170 171 173 168 168 171 168 172 161 151 157 161 163 160 158 164 169 169 166 164 163 155 148 148 161 170 166 168 171 174 172 173 184 169 168 182 169 171 175 168 188 200 165 129 145 300 35 115 116 285 242 202 233 242 242 233 176 175 186 168 173 149 127 157 195
174 176 175 173 171 167 168 171 169 167 168 169 170 170 168 167 168 171 170 169 172 173 173 170 167 168 171 171 161 155 156 155 159 162 161 167 173 172 173 174 164 148 147 154 163 168 170 175 174 174 171 175 182 175 187 189 172 183 179 163 184 203 150 132 132 82 86 117 43 348 289 32 295 292 242 224 317 261 170 135 175 153 135 193 203
178 177 178 175 171 169 168 173 173 170 171 173 173 173 170 167 169 171 172 171 174 174 173 173 169 168 174 172 164 166 164 162 168 165 161 169 175 171 174 179 166 151 155 166 172 174 178 180 175 172 177 181 178 182 193 184 180 191 177 169 171 150 146 140 132 104 126 163 101 106 135 180 261 331 7 323 326 346 111 129 172 151 129 173 189
184 180 180 178 173 171 171 175 176 173 173 174 175 176 171 167 169 171 174 175 174 174 173 174 172 171 175 176 172 172 170 170 171 162 160 170 173 170 171 176 176 169 170 176 178 180 181 180 175 165 173 186 181 181 184 177 183 184 171 175 165 150 154 139 144 137 149 208 196 153 202 11 216 313 1 343 20 11 18 150 169 177 165 177 186
187 187 186 181 176 175 176 178 180 175 174 176 176 176 172 168 171 172 174 176 175 175 175 175 175 174 175 178 178 178 177 175 172 162 163 167 166 168 168 170 175 174 175 178 175 176 175 176 179 169 172 184 180 179 183 180 177 168 167 170 153 153 149 129 151 141 162 231 244 116 341 45 199 308 22 342 291 354 323 120 142 172 164 166 174
189 195 192 185 180 178 178 180 183 178 174 178 178 174 170 168 172 174 174 177 178 176 177 177 177 176 177 181 182 186 184 178 175 165 161 161 161 167 166 166 175 174 174 176 172 174 175 174 179 177 177 178 179 188 188 178 167 161 165 161 153 156 149 158 198 67 193 198 121 339 342 5 281 283 125 289 328 37 331 43 75 66 67 45 92
190 188 188 193 187 181 180 182 185 182 176 178 179 174 171 169 172 175 175 177 179 178 178 178 178 177 180 184 183 190 188 179 178 167 160 161 160 164 163 163 173 176 173 174 175 177 175 174 175 175 179 178 182 191 180 169 166 167 168 162 165 166 156 173 174 169 302 359 146 203 326 330 311 313 165 268 359 17 308 273 160 148 111 64 37
185 177 183 193 186 178 185 189 188 184 178 179 180 175 173 172 174 177 177 177 178 179 179 180 181 180 183 186 185 189 189 180 180 171 162 163 161 161 163 163 169 174 171 170 176 179 172 174 175 173 180 180 179 178 169 169 168 169 175 170 177 178 169 179 171 185 253 273 197 188 202 257 283 302 313 353 19 2 321 311 179 146 135 135 82
179 179 186 184 170 151 177 196 197 189 181 180 181 177 174 174 176 177 178 179 179 179 180 182 183 183 185 188 188 188 189 185 183 176 168 169 167 164 166 168 170 174 175 173 177 180 174 176 179 179 181 174 170 172 169 173 168 168 181 177 182 187 177 181 180 190 215 220 224 193 201 233 238 245 233 170 343 346 334 317 346 69 151 148 155
175 180 188 181 172 150 156 198 215 207 188 182 184 179 175 175 177 179 179 179 180 179 181 183 184 186 187 189 190 188 189 189 186 181 177 177 176 173 172 173 175 178 180 181 181 178 176 178 180 182 181 166 171 181 172 168 163 167 184 180 182 190 186 189 190 193 206 215 228 226 234 239 224 244 211 171 202 267 258 285 325 334 314 135 160
176 187 189 173 155 143 137 180 213 228 206 187 188 181 175 177 177 179 181 180 180 180 182 184 185 187 188 189 191 189 190 191 188 187 184 181 182 182 179 178 181 181 180 185 187 178 173 179 180 181 183 176 182 184 169 167 169 171 182 182 184 191 189 193 197 199 207 217 234 251 272 280 254 255 234 178 192 195 221 299 4 351 334 344 174
180 191 175 135 129 147 160 179 201 223 223 202 200 183 172 176 178 179 181 181 181 181 182 185 186 188 189 190 191 190 190 191 192 192 188 185 188 189 187 183 182 186 186 187 186 176 170 178 181 179 181 183 187 181 168 176 181 177 181 184 190 193 189 192 199 205 210 215 231 246 266 292 295 271 260 193 174 152 58 35 41 15 338 326 289
179 184 155 139 154 166 175 184 198 211 214 216 229 213 178 175 177 180 181 180 182 183 184 186 187 188 190 190 191 191 191 192 193 195 193 191 193 193 194 193 189 188 187 185 181 175 174 179 179 180 182 184 186 185 184 189 190 193 195 192 195 194 189 193 198 207 216 215 223 237 251 269 273 276 291 329 46 82 89 30 6 69 59 339 320
177 180 156 151 167 174 175 181 197 201 175 178 223 264 249 184 175 180 183 180 182 183 184 187 188 189 191 191 191 190 190 192 193 195 196 195 196 196 195 199 199 191 183 182 181 179 181 181 178 183 188 187 187 187 193 198 196 200 201 197 200 196 188 196 200 204 218 220 218 222 234 256 266 279 297 311 10 119 167 278 340 54 73 357 310
177 179 155 143 161 174 173 177 192 184 133 148 179 226 280 230 184 181 184 182 183 184 185 187 188 190 191 192 193 192 191 193 192 193 196 196 195 197 197 196 199 196 188 185 183 181 184 185 183 187 190 191 192 190 194 200 199 203 204 198 202 200 191 199 204 206 214 219 221 220 216 228 244 255 263 253 251 234 197 207 250 241 204 315 338
178 177 158 149 160 163 155 153 157 153 145 141 152 177 232 246 215 193 191 187 185 186 186 187 190 192 193 194 195 194 193 195 195 192 193 195 194 195 197 195 195 198 196 187 182 183 186 188 188 191 192 192 197 198 198 199 201 207 208 201 204 207 201 201 206 209 213 213 218 222 213 214 225 232 241 243 242 239 206 208 239 235 163 183 295
76 146 150 151 149 133 118 121 113 109 130 138 157 183 197 211 215 209 206 198 192 193 191 189 192 194 195 196 197 198 196 197 197 194 193 195 195 195 196 196 193 195 197 190 186 187 189 190 191 193 194 194 197 201 202 201 203 208 212 211 208 207 207 209 209 212 212 206 209 218 216 217 227 234 241 246 248 243 213 213 236 237 197 221 246
62 67 76 109 125 114 116 152 162 129 133 149 168 189 196 202 205 200 203 204 197 201 204 199 197 199 198 195 197 200 199 200 200 197 197 197 196 196 196 197 194 194 196 194 193 195 195 195 196 197 198 198 198 200 203 204 205 206 213 219 215 209 209 214 217 220 218 209 206 212 217 220 225 231 236 241 244 241 228 227 240 241 221 221 229
69 62 58 73 105 116 117 145 158 124 129 149 159 184 195 204 205 196 201 209 201 201 211 214 209 208 206 199 198 201 199 200 202 200 200 200 198 197 197 198 196 195 196 196 196 199 200 199 201 202 202 201 201 202 204 206 206 207 210 214 215 213 212 215 219 223 224 223 216 214 218 222 223 227 232 234 240 238 226 220 226 232 230 230 231
55 60 54 59 78 99 102 105 108 98 111 158 173 182 185 195 205 195 196 210 207 203 210 219 219 221 222 211 201 201 202 200 201 202 203 202 200 199 198 199 199 197 198 199 198 199 201 202 203 204 204 204 204 203 206 210 210 210 211 211 214 213 213 215 219 223 225 226 227 223 223 225 225 227 228 230 239 246 242 231 222 218 220 229 233
54 59 55 51 56 65 71 75 90 96 107 163 191 191 180 186 205 201 197 205 211 214 214 214 212 212 232 246 224 203 201 204 202 202 204 203 202 200 199 201 203 201 200 201 201 201 201 203 205 205 205 205 205 203 206 214 215 213 213 215 217 216 216 218 220 223 225 225 227 229 228 228 231 231 227 229 237 245 254 259 253 235 225 231 236
65 61 55 50 45 43 45 47 55 69 76 101 154 179 185 191 198 203 205 204 210 221 221 216 213 207 218 254 255 224 204 204 206 205 204 205 204 201 199 202 205 207 203 201 203 204 203 204 205 207 207 207 207 205 206 212 214 214 215 218 220 220 220 222 223 225 227 227 229 231 230 229 233 235 232 232 237 240 245 254 260 259 253 252 251
69 66 58 51 46 40 35 32 31 39 46 54 76 96 102 136 147 153 197 212 214 221 226 224 225 215 206 226 253 251 226 208 206 208 207 205 207 205 201 201 205 210 209 204 203 204 206 206 206 208 210 209 210 210 209 211 213 214 214 215 219 222 222 225 227 228 229 230 230 231 233 232 231 234 234 233 234 235 239 244 249 251 250 250 248
70 72 67 57 52 46 39 32 25 26 34 37 40 50 64 77 78 70 67 167 211 211 231 235 232 230 217 218 240 260 265 255 231 218 213 208 208 209 206 204 205 209 214 212 205 203 207 209 208 208 212 212 212 213 214 214 215 217 216 214 216 220 222 225 228 230 230 231 232 232 233 234 232 232 234 236 236 235 235 238 243 246 247 246 247
74 74 73 68 64 53 46 39 30 31 37 37 33 22 22 58 70 59 56 51 48 69 20 303 240 243 248 247 246 250 270 285 287 270 242 222 214 214 213 208 203 205 213 218 213 206 204 209 212 211 212 214 214 214 216 218 218 221 222 218 217 220 222 224 226 229 231 231 232 233 232 232 233 232 231 232 234 236 236 236 239 242 244 245 247
77 76 76 74 75 72 63 52 41 41 40 39 40 22 1 24 56 53 49 42 32 38 48 61 79 120 225 248 247 238 245 252 256 269 276 256 235 226 223 218 207 203 208 217 223 217 206 204 211 215 215 216 217 215 216 217 217 220 223 223 222 223 225 227 227 228 231 232 233 235 235 235 233 232 231 231 231 232 233 235 238 240 239 241 243
80 79 80 78 76 80 81 77 69 63 52 42 45 30 6 14 35 43 42 36 32 39 47 63 79 88 106 205 209 223 242 242 231 229 238 267 273 241 239 253 233 215 212 212 220 227 218 207 207 212 216 218 220 220 218 217 216 217 220 223 226 226 226 229 232 232 233 235 235 236 239 241 240 238 236 234 233 232 232 233 236 237 235 236 238
80 77 80 82 78 72 73 76 77 78 73 60 51 40 27 25 26 34 40 36 34 39 41 48 60 57 33 25 60 91 207 253 241 231 233 261 281 259 252 281 292 275 251 227 222 229 231 223 212 209 214 219 223 225 222 220 219 218 219 221 225 229 229 229 232 235 238 239 240 242 243 245 246 246 244 241 238 237 236 237 237 236 234 234 235
83 76 70 74 78 72 65 63 65 70 74 72 61 48 42 38 32 35 40 40 37 35 27 23 36 44 36 16 21 35 35 27 4 345 255 259 262 251 245 244 250 277 281 260 242 235 235 238 231 219 216 218 223 228 227 224 221 219 221 222 224 228 231 231 231 233 236 240 242 245 247 247 248 248 246 243 240 240 241 243 244 243 241 239 237
81 78 70 64 68 69 66 63 59 56 57 62 61 54 49 44 41 40 43 47 47 39 28 19 24 35 37 29 25 19 17 20 9 358 356 321 281 260 252 246 242 247 249 249 250 243 237 240 242 238 232 225 224 226 228 228 226 223 223 222 223 226 229 231 232 232 233 236 239 242 244 247 248 250 249 244 239 239 242 244 247 249 248 247 244
72 71 68 62 60 61 62 66 67 61 53 51 53 57 58 53 46 43 44 52 53 44 36 30 29 32 30 26 27 16 2 2 356 338 330 331 324 290 265 261 258 256 255 253 251 248 245 244 245 246 246 245 241 234 230 228 227 226 226 224 224 225 227 230 233 233 233 233 235 238 240 243 246 248 251 251 244 239 239 241 244 246 249 251 251
72 68 62 56 54 53 49 51 65 68 60 51 47 49 56 57 53 49 51 57 56 49 44 35 31 33 28 24 28 25 8 355 348 337 330 330 326 298 270 262 260 260 263 264 260 255 254 254 253 250 249 251 252 249 245 238 230 227 227 226 225 225 227 231 234 236 237 236 236 236 237 240 243 244 246 249 250 245 240 239 240 243 247 250 252
70 72 67 53 44 45 41 37 48 57 53 48 47 46 47 47 47 52 59 63 59 54 50 41 31 29 28 25 25 27 21 14 7 357 349 342 326 299 274 261 261 263 261 260 258 254 250 248 248 249 249 249 248 249 251 251 243 234 228 227 226 225 226 230 233 237 240 241 242 241 240 240 241 242 243 244 246 247 243 238 237 239 244 249 253
60 67 70 55 36 31 32 31 41 47 40 37 42 45 47 42 35 40 53 61 59 53 49 45 34 25 22 20 16 16 19 20 13 2 0 360 341 311 291 277 273 270 264 261 259 257 254 251 249 250 252 251 248 247 247 249 249 243 234 228 226 225 226 229 233 236 239 242 244 244 244 244 243 243 244 244 243 243 244 243 241 240 241 245 251
52 54 57 45 27 19 19 23 40 42 27 25 34 35 41 39 27 28 43 51 51 46 41 41 38 28 21 15 12 13 14 13 7 355 353 355 349 335 322 309 295 282 274 271 268 264 262 260 257 256 256 256 254 252 250 248 246 244 240 233 228 225 227 231 234 237 240 241 244 245 244 244 245 245 245 245 245 243 242 243 244 244 244 244 247
48 46 38 26 14 10 11 17 35 32 12 17 32 29 33 33 18 16 31 40 41 36 30 28 24 20 18 12 9 9 5 2 358 348 346 350 345 334 329 329 318 296 282 276 273 271 269 266 265 264 262 261 259 257 255 254 251 247 242 236 230 226 227 231 235 239 241 243 245 246 245 244 245 245 245 245 245 244 244 244 244 244 245 246 248
39 33 20 12 13 14 9 11 23 18 2 11 24 22 28 27 12 11 20 24 28 26 20 17 11 4 4 2 356 353 351 354 354 346 341 342 338 330 326 330 325 307 292 284 279 279 280 278 277 277 275 273 268 265 265 266 265 260 248 237 228 224 226 230 235 238 241 245 246 247 247 247 246 245 245 245 244 244 245 245 244 243 244 246 248
33 26 15 15 18 16 8 4 8 3 358 7 12 12 19 16 8 12 11 8 12 11 7 4 357 352 354 352 347 342 341 344 348 345 336 326 327 329 326 324 320 312 303 295 291 290 289 288 286 284 285 285 285 289 295 293 289 287 272 249 234 229 230 232 234 237 241 244 246 246 247 248 248 247 247 246 245 244 244 244 243 243 245 247 247
26 31 33 26 18 14 7 360 358 357 357 1 1 5 10 4 360 4 360 356 360 357 354 351 344 342 345 344 342 339 334 332 333 334 330 320 316 320 321 318 314 310 304 297 296 296 292 290 287 282 281 286 292 301 310 308 297 290 282 265 247 239 238 235 234 236 238 241 245 247 246 248 250 250 248 247 246 245 244 244 244 246 248 249 247
20 34 35 28 18 13 4 355 354 358 360 359 358 359 359 354 355 358 353 349 348 342 338 337 335 336 337 333 332 329 323 319 316 317 319 318 315 315 316 313 307 305 304 299 296 293 288 285 284 280 280 283 285 284 286 289 285 279 278 279 267 253 245 239 238 240 239 239 242 247 249 249 250 252 253 250 248 246 244 244 246 248 249 249 248
21 29 27 21 13 5 357 352 357 1 1 359 357 355 352 349 350 350 346 341 335 330 330 331 331 331 327 321 317 313 308 306 305 302 302 303 306 308 309 308 304 301 302 300 296 292 286 282 282 285 286 282 276 274 273 275 280 284 287 289 284 269 253 243 241 246 249 251 253 259 263 260 253 252 255 256 253 249 246 246 246 247 248 249 248
18 21 18 10 359 354 352 353 359 1 358 358 356 350 346 346 345 343 338 332 328 327 327 326 323 318 314 310 307 305 304 301 300 299 293 290 292 293 295 298 298 294 290 289 290 288 281 276 278 283 287 286 284 283 282 280 283 289 287 282 280 279 270 254 245 244 247 253 260 264 270 277 273 264 260 260 258 253 249 247 247 246 246 245 245
15 12 7 358 352 353 355 354 354 355 352 351 350 345 343 342 339 335 331 328 329 328 323 319 317 313 310 309 305 302 301 298 296 293 287 281 278 274 273 276 279 281 282 284 289 295 298 298 299 292 287 290 294 291 286 284 285 284 284 285 284 282 280 275 264 254 248 248 251 252 254 266 280 284 278 270 264 260 256 252 248 245 243 242 241
12 3 358 354 352 352 351 348 348 348 346 344 343 340 339 337 334 330 329 330 332 328 321 317 315 311 307 303 297 293 293 292 291 288 284 281 277 271 265 266 274 285 293 295 302 319 335 341 340 325 308 304 310 307 296 291 292 291 291 293 291 286 284 287 288 280 264 256 255 256 256 258 265 276 280 276 269 266 265 260 253 247 243 240 239
4 359 356 354 349 345 345 343 342 340 338 337 336 334 333 333 332 331 332 333 331 325 320 316 310 306 301 296 290 286 283 281 281 282 281 283 285 284 283 286 292 295 298 301 309 320 324 321 315 310 307 308 315 318 313 305 310 316 312 306 302 299 296 293 292 294 286 268 259 258 259 261 263 267 269 269 266 263 262 259 255 250 245 242 240
358 358 355 350 344 341 339 336 335 335 334 331 331 331 332 332 331 331 331 329 325 322 320 315 310 306 303 301 299 296 294 295 297 297 293 288 287 291 294 295 292 288 287 292 296 298 301 301 296 291 293 297 299 301 297 292 295 302 307 308 306 299 292 286 284 287 283 271 260 256 257 260 263 263 261 259 258 257 257 254 251 248 246 243 241
355 352 348 343 337 334 332 331 333 335 334 333 331 330 331 331 330 330 329 327 326 324 319 316 314 312 310 312 312 310 311 313 312 308 306 301 294 291 293 294 293 290 286 285 287 288 288 288 286 283 283 284 285 287 288 289 289 291 294 297 297 293 287 281 279 280 277 267 261 260 260 261 260 258 257 255 253 253 252 250 247 244 240 238 238
345 338 331 326 325 327 329 331 333 333 331 330 328 327 328 329 327 327 326 323 322 320 316 314 313 312 312 314 311 306 305 305 301 298 298 298 293 288 286 286 285 285 284 283 282 283 282 279 279 281 281 278 278 283 289 293 292 289 287 286 285 283 281 278 278 279 273 264 257 254 255 255 251 251 255 256 254 252 251 248 245 243 237 233 232
Height
776 779 782 784 787 790 794 796 799 802 805 808 811 813 815 817 819 821 823 825 827 828 830 832 833 835 837 838 840 841 843 844 845 846 847 848 849 850 850 851 852 852 854 855 857 858 858 860 861 862 863 863 864 864 864 864 864 864 864 865 865 865 865 865 866 866 866 867 867 867 867 867 867 867 867 867 867 867 867 867 867 867 868 869 869
776 779 780 783 786 789 793 796 798 801 804 807 810 812 815 817 819 821 823 825 827 828 829 831 833 835 836 838 839 841 842 843 845 846 847 847 848 849 850 851 852 853 854 855 856 858 859 860 861 862 863 863 864 864 864 864 864 864 864 865 865 866 866 866 866 866 866 866 866 867 867 867 867 866 866 865 865 866 866 866 866 866 867 868 869
777 778 779 782 785 788 792 795 798 801 804 807 809 812 814 816 818 820 822 824 826 828 829 831 832 834 836 838 839 841 842 843 844 845 846 846 847 849 850 851 853 854 854 855 856 857 858 860 860 861 862 862 863 863 863 864 864 864 865 866 866 866 866 866 866 866 866 866 866 868 868 867 868 866 864 864 864 865 865 865 865 865 867 868 868
778 777 778 780 784 788 791 794 797 800 803 806 808 811 813 815 817 819 822 824 825 827 829 830 832 834 835 837 839 840 842 843 844 845 846 846 847 848 850 852 853 853 854 854 854 856 858 859 860 860 861 862 863 863 863 864 864 865 865 866 866 866 866 866 866 866 866 866 867 869 867 868 871 867 862 862 863 863 864 864 864 865 866 868 867
777 777 778 779 782 787 791 794 796 799 802 805 807 810 811 814 817 819 821 823 825 826 828 830 831 833 835 837 839 840 842 844 845 846 846 846 846 847 849 850 852 852 852 853 854 856 857 858 859 860 861 862 863 863 863 864 864 865 865 866 866 866 865 866 867 866 866 866 867 868 868 871 871 865 862 863 862 862 863 863 864 865 866 867 867
775 776 776 778 781 786 790 793 795 798 801 803 806 808 811 813 816 818 820 822 824 825 828 829 830 833 834 835 837 839 841 843 845 846 846 846 846 847 848 848 850 850 852 854 855 856 858 859 859 860 861 862 862 863 863 863 864 865 865 866 866 866 865 866 866 866 867 867 867 867 868 870 868 864 865 866 863 861 862 863 864 864 865 866 867
774 774 775 777 781 785 789 791 793 796 799 802 805 807 809 812 815 817 820 821 824 825 827 829 830 832 834 835 837 838 840 842 844 845 845 847 847 848 849 850 851 852 853 855 856 857 858 859 860 861 862 862 862 863 863 863 864 865 865 866 866 866 865 865 866 867 867 867 867 866 866 866 866 865 866 867 867 865 862 862 864 863 864 865 865
775 775 775 776 779 783 787 790 791 794 797 800 802 805 807 810 814 816 818 821 822 824 826 828 829 831 833 835 836 838 839 841 843 844 845 846 848 849 850 852 853 854 855 856 857 857 858 859 860 861 862 862 862 862 863 863 864 865 865 865 865 865 865 865 866 866 867 867 866 866 866 866 866 865 865 865 867 868 864 862 862 862 863 863 864
776 776 776 776 778 782 785 788 790 792 795 798 800 803 806 809 812 815 817 820 821 823 825 827 829 831 832 834 835 837 839 840 842 844 845 846 847 849 850 852 853 853 855 856 857 858 858 859 860 860 861 862 862 862 863 863 864 864 864 865 865 865 866 866 866 866 866 867 867 866 867 867 866 866 866 865 865 868 868 863 862 863 863 864 864
776 775 776 776 778 780 784 787 789 790 793 797 799 801 805 807 811 813 815 818 820 822 824 826 828 830 832 833 835 836 837 839 841 842 844 845 847 848 849 851 851 852 854 855 856 857 858 858 859 860 860 860 861 861 862 862 863 863 864 864 865 865 866 866 866 867 867 867 867 867 867 867 867 866 866 866 865 867 868 865 863 864 865 866 865
776 776 776 777 779 781 785 786 787 790 792 795 798 800 803 806 809 812 814 816 818 820 823 825 827 829 830 832 834 835 836 838 840 841 843 844 846 847 848 849 850 851 852 854 855 856 856 857 858 858 859 859 860 860 861 861 862 863 863 864 865 865 866 866 867 867 867 867 867 867 868 867 867 867 866 867 866 866 867 865 863 863 865 866 866
774 776 777 777 779 782 785 786 786 789 790 793 796 798 801 804 807 810 812 815 817 819 822 824 826 827 829 831 833 834 836 837 839 840 842 843 845 846 847 848 849 850 851 852 854 855 855 856 857 857 858 858 859 859 860 860 861 862 862 863 864 865 865 866 867 867 867 867 867 867 868 867 867 867 866 867 867 867 867 866 864 864 865 865 866
773 776 777 777 779 782 785 786 787 788 790 792 794 797 800 803 806 808 810 813 815 817 820 822 824 826 828 830 832 833 835 836 838 839 841 842 843 845 846 847 848 849 850 851 852 853 854 855 855 856 856 857 858 859 859 859 860 861 862 863 863 864 865 866 866 867 867 867 867 867 867 867 867 866 866 867 867 867 867 866 865 865 865 865 866
774 776 777 777 779 782 784 785 786 788 790 791 793 795 799 802 805 807 809 811 814 816 818 821 823 825 827 829 830 832 834 835 837 838 839 841 842 843 844 845 846 847 848 849 850 851 852 853 854 855 855 856 857 858 858 858 859 859 860 862 862 863 864 865 866 866 867 867 867 867 867 866 866 866 866 866 867 867 867 867 866 866 866 865 865
774 775 776 779 780 780 782 783 785 788 790 793 794 795 797 800 804 806 808 810 812 814 817 819 821 823 826 828 829 831 833 834 835 837 838 839 841 842 843 844 845 846 846 847 848 849 851 852 853 854 854 855 856 857 857 858 858 859 860 861 862 863 863 864 865 866 866 867 866 867 867 866 866 866 866 866 866 867 867 867 867 868 869 868 865
773 774 776 780 780 779 780 783 786 788 791 795 797 798 798 799 802 805 807 809 811 813 816 818 820 822 824 826 828 830 831 833 834 836 837 838 839 840 842 843 844 845 845 846 847 848 849 851 852 853 853 854 855 856 856 857 858 859 859 860 861 862 862 863 864 865 865 866 866 867 867 866 866 866 866 866 866 867 867 868 868 868 871 872 869
772 772 775 779 779 779 782 784 786 789 793 795 798 803 803 802 802 805 807 809 811 813 815 817 819 821 823 824 827 828 830 831 832 834 835 836 838 839 840 842 842 843 844 845 846 847 849 850 850 851 852 853 854 855 855 856 858 858 859 860 860 861 862 863 863 864 865 865 865 866 866 867 867 866 866 866 866 867 868 869 869 868 869 871 872
771 769 773 778 779 780 782 785 788 790 793 794 797 803 808 808 805 805 808 808 810 812 814 816 818 820 822 823 825 826 828 830 831 832 834 835 836 837 839 840 841 842 843 844 846 847 848 849 849 850 851 852 853 854 855 856 857 858 859 859 860 860 861 862 863 863 864 864 865 865 866 866 867 867 867 867 867 868 868 868 869 868 868 869 870
772 770 773 777 778 780 782 785 788 790 792 795 797 801 806 811 809 808 810 809 810 812 813 816 818 819 821 822 824 825 826 828 829 830 832 833 834 836 837 838 840 841 842 843 844 845 847 848 849 850 851 852 853 853 854 856 857 857 858 859 859 860 861 861 862 863 863 864 864 865 865 865 866 866 867 867 867 867 868 868 868 868 868 869 868
774 772 774 774 777 781 784 787 789 790 794 796 798 799 802 808 810 811 813 811 810 812 813 815 817 819 820 822 823 825 825 827 828 829 830 831 833 834 835 837 838 840 841 842 843 844 846 847 848 849 850 851 852 853 854 855 856 857 857 858 858 859 860 860 861 862 862 863 863 864 865 865 866 866 866 866 866 867 867 868 868 868 868 869 869
777 776 776 776 779 782 784 786 788 791 794 796 798 800 801 806 808 809 811 811 810 812 813 815 816 818 820 821 823 824 825 826 827 828 829 829 831 832 834 835 836 838 839 841 842 843 845 846 847 848 849 850 851 852 853 854 855 856 856 857 857 858 859 860 860 861 861 862 863 863 864 864 865 865 865 866 866 866 867 867 868 867 867 868 868
778 779 780 780 781 783 784 786 788 792 795 798 799 799 800 803 806 807 807 807 809 810 812 814 815 817 819 820 822 823 824 825 826 827 828 829 830 831 832 834 835 836 837 839 841 842 843 845 846 847 848 849 850 851 852 853 854 855 855 856 857 857 858 858 859 860 860 861 862 862 863 864 864 864 864 865 865 865 866 866 866 866 867 867 867
782 782 784 785 784 785 787 788 790 793 796 799 799 797 798 801 804 805 804 804 808 810 811 812 813 815 817 820 821 822 823 824 824 826 827 828 829 830 831 832 833 835 836 837 839 840 842 843 844 846 847 848 849 850 852 852 853 854 854 855 856 856 856 857 858 859 859 860 861 861 862 862 863 863 863 864 864 864 864 864 864 865 865 865 866
790 789 788 789 789 789 791 791 792 795 797 799 799 798 799 801 803 804 803 804 807 808 809 810 810 812 815 820 822 821 822 823 823 824 825 826 828 829 830 832 832 834 835 836 837 838 840 842 843 845 845 847 848 848 850 851 852 853 853 854 855 855 855 856 856 857 858 859 859 860 861 861 861 862 862 863 863 863 863 863 863 863 863 864 864
796 795 793 793 793 793 795 796 796 798 799 799 800 799 800 802 803 804 804 805 806 806 807 807 808 810 813 819 823 823 822 822 823 823 824 825 826 827 829 830 831 833 833 835 836 837 839 840 841 843 844 845 846 847 849 850 851 852 852 853 854 854 855 855 855 856 857 857 858 858 859 859 860 860 861 861 862 862 862 862 862 862 862 863 863
799 798 798 798 798 798 799 800 801 802 801 800 801 801 802 803 803 804 804 805 806 806 806 807 809 810 810 816 823 824 822 822 822 823 823 824 825 826 827 829 830 831 832 833 835 836 838 839 840 842 843 844 845 846 847 848 849 850 851 852 852 853 854 854 854 855 855 856 856 857 857 858 858 859 859 859 860 860 861 861 861 861 862 862 862
800 800 801 801 802 802 802 802 803 803 802 801 802 805 805 804 804 804 804 805 806 807 806 807 810 811 812 817 823 825 825 826 825 824 823 824 824 825 826 827 829 830 832 832 833 835 837 838 839 840 841 842 843 845 846 847 848 849 849 850 851 851 852 852 853 853 854 854 855 855 856 856 856 857 857 858 858 859 859 860 860 860 860 861 861
802 803 804 804 805 805 805 804 804 804 802 799 801 805 807 806 805 805 806 806 807 808 808 808 808 811 816 821 825 826 827 828 826 824 823 823 823 824 824 826 827 829 831 832 832 833 835 837 838 839 840 841 842 843 844 845 846 847 848 848 849 850 850 851 851 851 852 852 853 853 853 854 854 854 855 856 856 857 857 857 858 859 859 859 859
804 805 806 807 809 809 809 809 808 807 805 802 803 808 811 809 806 806 807 806 807 808 809 811 810 811 817 821 822 823 824 826 824 822 821 820 821 823 824 825 826 827 829 830 831 832 833 835 837 838 839 840 840 841 842 843 844 845 846 847 847 848 849 849 849 849 850 850 850 851 851 851 851 851 852 853 854 855 855 855 856 856 857 857 858
805 806 807 809 810 811 813 814 814 813 811 809 810 813 815 812 807 806 807 806 807 808 810 813 814 815 818 819 819 820 821 821 820 819 819 819 819 820 821 823 825 827 828 829 830 831 831 832 834 836 837 838 839 839 839 840 842 843 844 845 845 846 846 847 847 848 848 848 848 849 848 849 849 849 849 849 850 852 852 853 854 854 854 855 855
806 807 808 809 810 812 813 814 815 816 815 814 814 814 815 813 809 808 807 807 808 808 808 810 812 815 817 818 819 819 820 818 817 817 818 819 819 818 818 820 822 825 826 827 828 829 829 830 831 832 834 835 836 836 836 837 839 840 842 842 843 843 844 844 845 845 846 846 846 846 847 847 847 847 847 847 848 849 849 850 851 852 852 853 853
806 808 808 808 810 811 812 813 814 814 814 814 814 814 813 812 811 809 808 809 810 809 807 807 808 812 815 817 817 818 818 817 816 816 817 818 818 818 818 819 820 821 822 823 825 826 827 828 828 828 829 831 832 833 833 834 835 836 838 839 840 841 841 841 842 842 843 843 843 844 844 845 845 845 845 845 845 846 846 847 848 849 850 850 850
806 808 808 809 810 810 812 812 812 813 813 813 813 813 813 812 811 809 808 810 811 811 809 807 807 810 814 815 815 815 816 816 815 816 817 817 818 818 818 819 819 820 820 820 822 823 823 824 824 824 825 826 827 828 829 830 831 832 833 835 836 837 837 838 838 839 839 840 840 841 841 841 842 842 842 842 842 842 843 843 844 845 846 847 847
807 807 808 810 810 810 811 811 812 813 813 813 813 813 813 813 813 811 811 812 812 812 810 808 808 809 812 813 814 815 817 817 815 815 816 818 819 819 819 819 818 819 820 821 822 822 822 822 822 822 822 822 823 824 824 826 826 827 829 830 831 833 833 834 834 835 836 836 837 837 837 837 838 839 839 839 839 839 839 840 841 841 842 843 844
809 809 810 811 810 811 811 810 811 812 812 813 814 813 814 815 815 815 814 814 814 813 812 811 810 810 811 813 814 816 819 819 817 816 816 817 818 818 818 817 816 816 818 819 821 822 822 823 823 822 822 821 821 821 822 822 823 824 825 826 827 828 829 830 830 831 832 832 833 833 833 833 834 834 835 836 837 837 837 837 837 838 838 839 839
808 809 811 812 812 812 812 811 811 811 812 813 814 814 815 815 816 816 816 816 816 815 814 813 812 811 812 813 815 817 818 818 818 817 816 816 816 817 817 816 815 816 816 817 818 819 819 820 820 821 821 820 819 820 820 820 820 821 822 822 823 824 824 825 826 827 828 828 829 829 829 829 829 830 831 832 833 834 834 834 834 834 835 835 835
808 810 811 812 814 813 812 812 812 812 813 813 814 815 815 816 816 816 816 816 816 816 816 816 815 814 813 814 816 816 816 817 818 818 817 816 815 815 815 816 816 817 817 816 816 816 816 817 818 818 818 818 818 818 818 818 818 819 820 820 820 821 821 822 822 823 823 824 825 825 826 826 826 826 827 828 829 831 831 831 831 831 832 832 831
810 811 811 813 814 813 813 813 812 814 815 814 814 815 815 816 816 816 816 816 817 817 818 818 818 817 816 816 816 816 815 816 817 817 816 815 814 814 814 815 816 816 816 816 815 815 815 815 816 816 816 816 816 816 817 816 816 816 816 817 818 818 819 819 819 819 820 820 821 821 822 823 822 822 823 824 825 827 827 827 828 828 829 828 828
811 812 813 814 814 814 813 813 813 815 815 814 815 816 816 817 817 816 816 816 817 818 818 818 819 818 818 818 817 817 816 816 816 816 815 815 814 812 812 813 814 814 814 814 814 814 813 814 815 815 814 814 814 814 815 814 813 813 813 813 815 816 816 816 816 817 817 817 817 818 818 819 818 819 820 821 822 823 823 823 824 825 825 824 824
812 814 814 814 814 814 814 813 814 816 815 815 816 816 817 818 818 817 817 817 818 819 818 819 819 818 818 818 817 817 816 815 815 814 813 813 812 811 811 811 811 811 812 812 813 813 812 812 813 813 812 812 812 812 813 813 812 811 811 810 811 811 812 813 813 814 814 814 814 814 814 814 815 816 817 817 818 819 819 820 821 821 820 819 821
815 815 815 815 815 815 815 815 815 816 815 815 816 816 817 818 818 818 818 818 818 819 818 819 818 818 818 817 815 815 814 813 813 812 812 812 811 811 811 810 809 809 809 810 811 811 811 811 811 811 810 810 811 811 812 813 814 813 812 811 812 811 810 810 810 810 810 811 811 811 810 810 811 812 813 814 814 815 815 815 816 815 814 815 817
817 816 817 817 817 817 817 816 816 816 816 816 816 817 817 818 818 819 819 819 819 819 819 819 818 817 817 816 815 815 814 813 812 810 810 811 810 810 810 809 808 807 807 809 809 809 810 810 809 809 808 808 811 811 811 813 814 813 811 811 811 810 809 807 807 806 806 807 807 808 807 807 807 808 808 809 810 810 811 811 811 810 810 812 813
817 818 818 819 819 819 819 818 818 817 817 817 817 817 818 818 818 819 819 819 819 819 818 818 818 817 817 816 816 815 814 814 812 811 810 810 809 809 809 808 807 806 806 807 807 808 808 808 807 807 807 807 808 807 806 807 809 809 809 809 809 808 807 806 806 805 803 803 804 805 805 805 805 804 805 805 806 806 807 806 806 806 807 808 809
818 820 820 820 821 821 820 820 819 819 819 819 819 819 818 819 819 819 819 819 819 818 818 818 817 817 817 817 816 815 815 814 813 812 811 809 808 808 807 807 806 805 805 805 805 806 807 807 806 806 805 804 804 802 800 801 803 805 807 807 807 806 805 805 806 805 803 802 802 803 803 804 803 802 802 802 803 803 802 802 802 802 803 804 805
820 821 821 822 822 821 821 821 820 821 821 820 820 820 820 820 820 819 819 819 819 818 818 817 817 817 816 816 815 814 814 813 812 811 810 809 809 808 807 806 805 804 804 804 804 805 805 805 805 804 802 800 799 799 798 799 801 803 803 803 803 802 801 802 802 801 800 800 800 800 802 803 802 801 801 800 800 799 799 798 798 798 798 799 800
822 822 822 822 822 821 822 821 821 822 822 821 822 822 821 821 821 820 820 819 819 818 818 818 817 816 816 815 814 813 813 812 811 810 809 808 808 807 806 805 804 803 803 803 803 804 804 803 804 802 800 797 797 797 797 798 800 801 801 801 800 799 798 797 797 796 796 796 796 796 797 798 799 800 800 799 797 796 796 795 795 795 794 794 795
823 823 823 823 823 823 823 822 822 823 822 822 822 822 821 821 821 820 820 819 819 819 818 817 817 816 815 814 813 812 811 810 809 808 806 805 805 804 804 803 803 803 803 802 802 802 802 802 802 801 798 796 797 798 797 798 801 801 801 800 798 796 795 793 793 793 794 794 794 793 792 792 793 796 798 797 795 793 793 792 791 791 790 789 790
823 823 823 823 823 823 824 823 823 823 822 822 822 821 821 821 820 820 819 819 819 818 818 817 816 815 814 813 812 811 810 808 807 806 805 804 803 802 802 802 802 803 802 802 802 801 801 802 801 799 797 796 796 797 797 798 799 800 800 799 797 796 794 792 790 790 791 791 790 789 787 787 788 790 793 794 791 789 788 787 786 785 785 785 785
822 823 823 823 823 823 823 823 823 823 822 822 821 821 821 820 820 819 819 818 818 818 817 816 815 814 812 811 810 809 808 807 806 804 804 803 802 801 801 801 801 802 802 801 801 800 801 801 799 798 797 795 795 796 797 797 797 797 798 798 796 795 793 791 789 789 788 786 784 781 780 781 783 785 787 787 786 785 784 782 781 780 780 780 780
822 823 823 823 823 823 822 822 822 822 822 821 821 820 820 819 819 819 818 818 817 817 816 816 814 813 812 811 810 809 808 807 806 805 803 802 801 800 800 799 799 800 800 800 799 799 799 799 797 795 796 795 794 794 794 795 795 795 795 794 793 792 791 789 788 787 787 785 781 778 777 777 778 781 782 782 781 780 779 778 777 776 775 775 775
823 823 823 823 822 822 821 821 821 821 821 821 820 820 819 819 818 818 817 817 816 816 815 814 814 813 812 811 810 810 808 808 807 805 804 802 800 799 799 798 797 797 796 796 796 795 795 795 794 792 792 793 793 792 793 793 792 791 791 790 789 788 787 785 785 785 783 781 778 776 775 775 776 778 778 778 778 777 775 775 774 773 772 771 770